Fort Leonard Wood, MO

11:19 PM CDT on May 28, 2017 (GMT -0500)
Waynesville Regional At Forney Field

Weather History for KTBN - October, 2013

Change the Weather History Date:

Tuesday, October 15, 2013

  Actual Average Record
Temperature  
Mean Temperature 57 °F -  
Max Temperature 64 °F 67 °F 86 °F (1999)
Min Temperature 49 °F 48 °F 37 °F (2002)
Degree Days  
Heating Degree Days 8    
Growing Degree Days 7 (Base 50)    
Moisture  
Dew Point 60 °F    
Average Humidity 97    
Maximum Humidity 100    
Minimum Humidity 87    
Precipitation  
Precipitation 0.34 in - - ()
Sea Level Pressure  
Sea Level Pressure 29.96 in    
Wind  
Wind Speed 8 mph (SSW)    
Max Wind Speed 16 mph    
Max Gust Speed -    
Visibility 8 miles    
Events Rain    
Averages and records for this station are not official NWS values.
T = Trace of Precipitation, MM = Missing Value Source: NWS Daily Summary

Daily Weather History Graph

Daily Weather History Graph

Search for Another Location

Airport or City:

Trip Planner

Search our weather history database for the weather conditions in past years. The results will help you decide how hot, cold, wet, or windy it might be!

Date:

Astronomy

Oct. 15, 2013 Rise Set
Actual Time 7:17 AM CDT 6:30 PM CDT
Civil Twilight 6:50 AM CDT 6:57 PM CDT
Nautical Twilight 6:20 AM CDT 7:27 PM CDT
Astronomical Twilight 5:49 AM CDT 7:57 PM CDT
Moon 4:33 PM CDT (10/15) 3:43 AM CDT (10/15)
Length of Visible Light 12h 06m
Length of Day
11h 13m
Waxing Gibbous, 88% of the Moon is Illuminated
Oct 15
Waxing Gibbous
Oct 18
Full
Oct 26
Last Quarter
Nov 3
New
Nov 9
First Quarter

Hourly Weather History & Observations

Time (CDT) Temp. Dew Point Humidity Pressure Visibility Wind Dir Wind Speed Gust Speed Precip Events Conditions
12:27 AM 60.8 °F 60.8 °F 100% 30.02 in 9.0 mi SE 10.4 mph - N/A Rain Light Rain
12:40 AM 60.8 °F 60.8 °F 100% 30.00 in 10.0 mi SE 16.1 mph - N/A   Overcast
12:58 AM 60.3 °F 60.3 °F 100% 29.99 in 10.0 mi SE 16.1 mph - 0.01 in   Overcast
1:58 AM 60.3 °F 60.3 °F 100% 29.98 in 10.0 mi SSE 10.4 mph - N/A   Overcast
2:58 AM 60.4 °F 60.4 °F 100% 29.96 in 10.0 mi SSE 8.1 mph - N/A   Overcast
3:38 AM 60.8 °F 60.8 °F 100% 29.95 in 9.0 mi SSE 10.4 mph - N/A Rain Light Rain
3:50 AM 60.8 °F 60.8 °F 100% 29.94 in 10.0 mi SSE 9.2 mph - N/A   Overcast
3:58 AM 61.2 °F 61.2 °F 100% 29.94 in 10.0 mi SSE 8.1 mph - 0.00 in   Overcast
4:09 AM 60.8 °F 60.8 °F 100% 29.93 in 10.0 mi SSE 10.4 mph - N/A Rain Light Rain
4:58 AM 61.0 °F 61.0 °F 100% 29.93 in 3.0 mi SSE 10.4 mph - 0.09 in Rain Light Rain
5:18 AM 60.8 °F 60.8 °F 100% 29.93 in 10.0 mi SSE 9.2 mph - N/A   Overcast
5:23 AM 60.8 °F 60.8 °F 100% 29.93 in 10.0 mi SSE 9.2 mph - N/A   Light Drizzle
5:54 AM 60.8 °F 60.8 °F 100% 29.92 in 10.0 mi SE 10.4 mph - N/A   Overcast
5:58 AM 61.3 °F 61.3 °F 100% 29.92 in 10.0 mi SSE 10.4 mph - 0.01 in   Overcast
6:20 AM 60.8 °F 60.8 °F 100% 29.92 in 7.0 mi SSE 6.9 mph - N/A Rain Light Rain
6:30 AM 60.8 °F 60.8 °F 100% 29.92 in 7.0 mi SSE 8.1 mph - N/A Rain Light Rain
6:36 AM 60.8 °F 60.8 °F 100% 29.92 in 10.0 mi SSE 8.1 mph - N/A   Overcast
6:58 AM 61.5 °F 61.5 °F 100% 29.91 in 10.0 mi SSE 6.9 mph - 0.03 in   Overcast
7:35 AM 62.6 °F 62.6 °F 100% 29.95 in 4.0 mi WNW 6.9 mph - N/A Rain Light Rain
7:41 AM 62.6 °F 62.6 °F 100% 29.95 in 2.0 mi West 4.6 mph - N/A Rain Rain
7:46 AM 62.6 °F 62.6 °F 100% 29.95 in 2.0 mi SW 4.6 mph - N/A Rain Rain
7:51 AM 62.6 °F 62.6 °F 100% 29.95 in 1.8 mi SW 3.5 mph - N/A Rain Rain
7:58 AM 62.6 °F 62.6 °F 100% 29.95 in 1.5 mi SW 2.3 mph - 0.10 in Rain Rain
8:03 AM 62.6 °F 62.6 °F 100% 29.95 in 1.2 mi SW 2.3 mph - N/A Rain Rain
8:23 AM 62.6 °F 62.6 °F 100% 29.94 in 2.0 mi South 3.5 mph - N/A Rain Light Rain
8:28 AM 62.6 °F 62.6 °F 100% 29.94 in 3.0 mi SSE 5.8 mph - N/A Rain Light Rain
8:33 AM 62.6 °F 62.6 °F 100% 29.94 in 3.0 mi SSE 5.8 mph - N/A Rain Light Rain
8:49 AM 62.6 °F 62.6 °F 100% 29.94 in 4.0 mi SSE 6.9 mph - N/A   Overcast
8:58 AM 62.1 °F 62.1 °F 100% 29.93 in 5.0 mi Variable 3.5 mph - 0.10 in   Overcast
9:33 AM 62.6 °F 62.6 °F 100% 29.95 in 6.0 mi Variable 3.5 mph - N/A   Overcast
9:58 AM 62.6 °F 62.6 °F 100% 29.95 in 8.0 mi SW 3.5 mph - N/A   Overcast
10:33 AM 64.4 °F 64.4 °F 100% 29.95 in 10.0 mi Variable 3.5 mph - N/A   Overcast
10:58 AM 63.5 °F 63.5 °F 100% 29.96 in 10.0 mi West 5.8 mph - N/A   Overcast
11:28 AM 60.8 °F 60.8 °F 100% 29.97 in 10.0 mi WNW 6.9 mph - N/A   Overcast
11:33 AM 60.8 °F 60.8 °F 100% 29.97 in 10.0 mi WNW 8.1 mph - N/A   Overcast
11:53 AM 60.8 °F 60.8 °F 100% 29.97 in 10.0 mi WNW 5.8 mph - N/A   Overcast
11:58 AM 60.8 °F 60.8 °F 100% 29.97 in 10.0 mi Variable 6.9 mph - N/A   Overcast
12:58 PM 62.2 °F 61.0 °F 96% 29.96 in 10.0 mi West 5.8 mph - N/A   Overcast
1:18 PM 62.6 °F 60.8 °F 94% 29.96 in 10.0 mi West 5.8 mph - N/A   Overcast
1:58 PM 63.7 °F 60.4 °F 89% 29.95 in 10.0 mi West 5.8 mph - N/A   Overcast
2:58 PM 62.6 °F 59.4 °F 89% 29.95 in 10.0 mi West 5.8 mph - N/A   Overcast
3:33 PM 62.6 °F 59.0 °F 88% 29.95 in 10.0 mi Variable 5.8 mph - N/A   Overcast
3:58 PM 62.8 °F 58.8 °F 87% 29.95 in 10.0 mi West 4.6 mph - N/A   Overcast
4:23 PM 62.6 °F 59.0 °F 88% 29.96 in 10.0 mi Variable 4.6 mph - N/A   Mostly Cloudy
4:28 PM 62.6 °F 59.0 °F 88% 29.96 in 10.0 mi WNW 6.9 mph - N/A   Mostly Cloudy
4:38 PM 60.8 °F 57.2 °F 88% 29.96 in 10.0 mi West 6.9 mph - N/A   Mostly Cloudy
4:58 PM 60.6 °F 57.0 °F 88% 29.97 in 10.0 mi WNW 5.8 mph - N/A   Scattered Clouds
5:58 PM 58.5 °F 54.5 °F 87% 29.97 in 10.0 mi West 6.9 mph - N/A   Scattered Clouds
6:58 PM 55.9 °F 52.9 °F 89% 30.00 in 10.0 mi West 4.6 mph - N/A   Scattered Clouds
7:58 PM 54.0 °F 52.0 °F 93% 30.02 in 10.0 mi West 5.8 mph - N/A   Clear
8:58 PM 52.7 °F 50.9 °F 94% 30.03 in 10.0 mi West 5.8 mph - N/A   Clear
9:58 PM 51.4 °F 49.6 °F 94% 30.04 in 10.0 mi SW 2.3 mph - N/A   Clear
10:58 PM 50.5 °F 49.5 °F 96% 30.04 in 10.0 mi Variable 2.3 mph - N/A   Clear
11:58 PM 49.6 °F 48.7 °F 97% 30.04 in 10.0 mi NW 2.3 mph - N/A   Partly Cloudy